Regional Weather Roundup
Issued by NWS

Home | Current Version | Previous Version | Graphics & Text | Print | Product List | Glossary On
Versions: 1 2 3 4 5 6 7 8 9 10 11 12 13 14 15 16 17 18 19 20 21 22 23 24 25 26 27 28 29 30 31 32 33 34 35 36 37 38 39 40 41 42 43 44 45 46 47 48 49 50
000
ASUS43 KMKX 270459
RWRWI

WISCONSIN REGIONAL WEATHER ROUNDUP
NATIONAL WEATHER SERVICE MILWAUKEE/SULLIVAN WI
1100 PM CST THU FEB 26 2015

NOTE: "FAIR" INDICATES FEW OR NO CLOUDS BELOW 12,000 FEET WITH NO
SIGNIFICANT WEATHER AND/OR OBSTRUCTIONS TO VISIBILITY.

WIZ001-002-006>008-014>016-023>028-270600-
NORTHWEST WISCONSIN

CITY           SKY/WX    TMP DP  RH WIND       PRES   REMARKS
SUPERIOR ARPT  CLEAR      2 -12  52 W5        30.46S WCI  -8
ASHLAND        CLEAR     -2 -12  62 SW8       30.41S WCI -17
HAYWARD        CLEAR    -11 -18  71 CALM      30.39S
SIREN          CLEAR     -4 -12  67 CALM      30.45S
CUMBERLAND     CLEAR     -4 -13  65 NW5       30.40S WCI -15
RICE LAKE      CLEAR     -3 -12  63 NW5       30.43F WCI -13
CHETEK         CLEAR     -1 -11  63 W3        30.42S
LADYSMITH      CLEAR     -6 -13  68 W5        30.40S WCI -16
EAU CLAIRE     NOT AVBL
MENOMONIE      CLEAR      1 -10  59 W5        30.45S WCI  -9
NEW RICHMOND   CLEAR     -4 -11  70 W6        30.45S WCI -16
OSCEOLA        CLEAR     -1 -10  65 W5        30.49S WCI -11
$$

WIZ003>005-009-010-017-018-270600-
NORTH CENTRAL WISCONSIN

CITY           SKY/WX    TMP DP  RH WIND       PRES   REMARKS
MANITOWISH WTR CLEAR    -11 -17  72 W3        30.30S
ARBOR VITAE    FAIR      -8 -14  73 CALM      30.30S
WOODRUFF       FAIR      -8 -14  73 CALM      30.30S
RHINELANDER    CLEAR    -10 -17  71 W6        30.30F WCI -23
EAGLE RIVER    CLEAR    -14 -20  74 CALM      30.29S
LAND O LAKES   CLEAR    -21 -27  72 CALM      30.29S
PHILLIPS       CLEAR    -12 -17  79 CALM      30.33F
TOMAHAWK       CLEAR    -16 -21  77 CALM      30.33F
MEDFORD        CLEAR     -6 -13  73 CALM      30.34S
MERRILL        CLEAR     -8 -14  75 CALM      30.35S
$$

WIZ029-030-035-036-043>047-270600-
CENTRAL WISCONSIN

CITY           SKY/WX    TMP DP  RH WIND       PRES   REMARKS
WAUSAU         CLEAR      0 -11  59 NW6       30.36R WCI -12
MOSINEE        CLEAR      1  -8  66 W5        30.37S WCI  -8
MARSHFIELD     CLEAR     -1 -12  59 W6        30.38R WCI -13
STEVENS POINT  CLEAR     -1 -10  64 CALM      30.39S
WAUPACA        CLEAR      5  -8  55 W5        30.41S WCI  -4
WAUTOMA        NOT AVBL
WISC RAPIDS    CLEAR     -1 -13  56 NW7       30.41F WCI -14
CAMP DOUGLAS   NOT AVBL
$$

WIZ011>013-019>022-031-037>040-048>050-270600-
NORTHEAST WISCONSIN

CITY           SKY/WX    TMP DP  RH WIND       PRES   REMARKS
ANTIGO         CLEAR     -4 -11  70 NW6       30.32S WCI -16
SHAWANO        CLEAR      4  -9  54 CALM      30.39S
OCONTO         CLEAR     -7 -11  83 CALM      30.40S
STURGEON BAY   CLEAR      0  -8  71 N3        30.40R
GREEN BAY      CLEAR      1  -6  72 W8        30.40R WCI -13
MANITOWOC      NOT AVBL
APPLETON       CLEAR      1  -9  60 W10       30.38S WCI -14
CLINTONVILLE   CLEAR      3  -8  60 W5        30.39S WCI  -6
OSHKOSH        CLEAR      4  -7  60 W7        30.39S WCI  -8
$$

WIZ032>034-041-042-053>061-270600-
SOUTHWEST WISCONSIN

CITY           SKY/WX    TMP DP  RH WIND       PRES   REMARKS
LA CROSSE      CLEAR     -1  -9  68 CALM      30.49S
SPARTA         CLEAR    -10 -15  78 E3        30.46F
VIROQUA        CLEAR      0  -8  70 W5        30.41S WCI -10
BOSCOBEL       FAIR      -5 -10  79 CALM      30.49S
PRAIRIE DU CHI CLEAR     -2 -10  70 CALM      30.51S
PLATTEVILLE    CLEAR     -1  -8  74 W5        30.44S WCI -11
$$

WIZ056-057-062-063-064-067-068-270600-
SOUTH CENTRAL WISCONSIN

CITY           SKY/WX    TMP DP  RH WIND       PRES   REMARKS
REEDSBURG      CLEAR      1  -8  64 W5        30.43S WCI  -8
BARABOO/DELLS  CLEAR      1  -9  62 W5        30.42S WCI  -9
LONE ROCK      NOT AVBL
MINERAL POINT  CLEAR      0  -9  65 NW3       30.41S
MADISON        CLEAR      2  -8  63 NW5       30.43R WCI  -8
MIDDLETON      CLEAR      1  -9  62 NW3       30.43R
WATERTOWN      CLEAR     -4  -9  79 CALM      30.41S
MONROE         CLEAR      3  -6  66 NW9       30.40S WCI -11
JANESVILLE     CLEAR     -4  -8  84 CALM      30.43S
$$

WIZ051-052-058>065-066-070>072-270600-
SOUTHEAST WISCONSIN

CITY           SKY/WX    TMP DP  RH WIND       PRES   REMARKS
MILWAUKEE      CLEAR      6  -5  60 CALM      30.42R
WAUKESHA       CLEAR      1  -6  71 W5        30.41S WCI  -8
MILWAUKEE/TIMM CLEAR      3  -6  66 W5        30.43R WCI  -6
RACINE         CLEAR      3  -7  63 W7        30.43S WCI  -9
BURLINGTON     CLEAR     -8 -13  79 CALM      30.42S
KENOSHA        CLEAR     -3 -11  68 W6        30.41S WCI -15
FOND DU LAC    CLEAR      4  -8  57 W10       30.40S WCI -11
SHEBOYGAN      CLEAR      2  -7  66 W7        30.40R WCI -11
WEST BEND      CLEAR      1  -6  71 W3        30.40R
JUNEAU         CLEAR      3  -7  63 NW3       30.41S
$$

LSZ147-162-270600-
LAKE SUPERIOR

STATION/POSITION TIME  TEMP    WIND        PRES    WAVE
                       AIR SEA DIR/SP/G            HT/PER
                 (UTC) (F)     (DEG/KT/KT) (MB)    (FT/S)
DEVILS ISLAND    0400    7     300/ 15/ 18 1031.2R
PORT WING        0400    8     300/ 12/ 17 1030.5R
$$

LMZ867-665-643>646-270600-
LAKE MICHIGAN

STATION/POSITION TIME  TEMP    WIND        PRES    WAVE
                       AIR SEA DIR/SP/G            HT/PER
                 (UTC) (F)     (DEG/KT/KT) (MB)    (FT/S)
NORTHPORT PIER   0425    3     250/  5/  6 1028.8R
SISTER BAY       0313    1        CALM       N/A
KEWAUNEE LAKESHO 0400    0     300/  2/  4 1028.1R
SHEBOYGAN LAKESH 0400    7     250/  8/  9 1031.4R
PORT WASHINGTON  0400    6     290/  4/  5 1030.8R
MILWAUKEE LAKESH 0400   10     290/  5/  7   N/A
KENOSHA   LAKESH 0400    7     310/  7/  9 1029.8R
$$

TC  - TEMPERATURE IN CELSIUS
VSB - VISIBILITY IN STATUTE MILES
WCI - WIND CHILL INDEX
HX  - HEAT INDEX




USA.gov is the U.S. government's official web portal to all federal, state and local government web resources and services.